EW2485 Weather Reports


Display with metric or nautical units.
time (UTC)temp
F
wind
direction
speed
MPH
gust
MPH
rain 1hr
in
rain 24hr
in
rain mn
in
humidity
%
barometer
mb
20260901134510 70 178 0.0 2.0 0.01 0.91 0.39 96 1014.2
20260901133052 70 178 0.0 2.0 0.01 0.91 0.39 96 1014.4
20260901131521 69 178 1.0 4.0 0.01 0.91 0.39 96 1014.5
20260901130037 69 161 0.0 3.0 0.01 0.91 0.39 96 1014.6
20260901124558 69 165 0.0 3.0 0.00 0.90 0.38 96 1014.7
20260901123029 69 56 0.0 2.0 0.01 0.90 0.38 96 1014.5
20260901121554 68 117 0.0 3.0 0.02 0.90 0.38 96 1014.7
20260901120014 68 63 0.0 5.0 0.14 0.90 0.38 96 1014.8
20260901114535 67 178 1.0 3.0 0.23 0.90 0.38 96 1015.0
20260901113058 67 190 2.0 4.0 0.23 0.89 0.37 96 1015.0
20260901111518 67 240 2.0 5.0 0.26 0.88 0.36 96 1014.9
20260901110100 67 178 2.0 8.0 0.15 0.77 0.26 96 1015.1
20260901110002 67 170 2.0 8.0 0.14 0.75 0.25 96 1015.1
20260901104543 66 350 2.0 3.0 0.09 0.67 0.15 95 1014.6
20260901103010 66 349 2.0 4.0 0.08 0.66 0.14 96 1014.5
20260901101549 66 197 2.0 3.0 0.04 0.62 0.10 96 1014.6
20260901100059 66 340 1.0 2.0 0.04 0.62 0.10 96 1014.6
20260901100001 66 1 0.0 3.0 0.03 0.61 0.10 96 1014.6
20260901094523 66 314 0.0 2.0 0.00 0.57 0.06 95 1014.4
20260901093049 66 1 1.0 3.0 0.00 0.57 0.06 96 1014.6
20260901091602 66 269 1.0 3.0 0.00 0.57 0.06 96 1014.6
20260901090024 65 338 2.0 4.0 0.00 0.57 0.06 96 1014.6
20260901084539 65 269 1.0 3.0 0.01 0.57 0.06 95 1014.7
20260901083057 65 1 1.0 2.0 0.05 0.57 0.06 95 1015.0
20260901081521 65 56 1.0 4.0 0.05 0.57 0.06 95 1015.3
20260901080053 65 46 1.0 3.0 0.06 0.57 0.06 95 1015.4
20260901074548 65 269 1.0 3.0 0.05 0.56 0.05 95 1015.6
20260901073011 65 39 1.0 3.0 0.01 0.53 0.01 95 1015.8
20260901071549 65 108 1.0 3.0 0.01 0.53 0.01 95 1015.8
20260901064552 65 20 1.0 2.0 0.00 0.52 0.00 95 1015.8
20260901063011 65 1 1.0 3.0 0.00 0.52 0.00 95 1015.9
20260901061535 65 28 2.0 4.0 0.00 0.52 0.00 95 1016.0
20260901060056 64 295 1.0 2.0 0.00 0.52 0.00 95 1015.9
20260901054527 64 28 2.0 4.0 0.00 0.52 0.00 95 1016.2
20260901053051 64 28 1.0 3.0 0.00 0.52 0.00 94 1016.3
20260901051513 65 35 1.0 2.0 0.00 0.52 0.00 94 1016.5
20260901050052 65 1 2.0 3.0 0.00 0.52 0.00 94 1016.4
20260901044536 65 1 2.0 3.0 0.00 0.52 0.00 94 1016.4
20260901043006 65 1 2.0 3.0 0.00 0.52 0.00 94 1016.6
20260901041528 66 56 1.0 2.0 0.00 0.52 0.00 94 1016.6
20260901040050 66 35 1.0 3.0 0.00 0.52 0.52 94 1016.6
20260901034606 66 314 2.0 3.0 0.00 0.52 0.52 94 1016.7
20260901034502 66 1 1.0 3.0 0.00 0.52 0.52 94 1016.6
20260901033102 66 1 0.0 2.0 0.00 0.52 0.52 94 1016.7
20260901031559 66 63 1.0 2.0 0.00 0.52 0.52 94 1016.8
20260901030019 67 39 1.0 3.0 0.00 0.52 0.52 94 1016.8
20260901024546 67 1 1.0 2.0 0.00 0.52 0.52 94 1016.7
20260901023014 67 46 1.0 3.0 0.00 0.52 0.52 94 1016.8
20260901021528 67 1 1.0 2.0 0.00 0.52 0.52 94 1016.9
20260901020052 67 15 1.0 3.0 0.01 0.52 0.52 94 1017.0
20260901014522 67 223 0.0 2.0 0.02 0.52 0.52 94 1017.1
20260901013047 67 46 0.0 3.0 0.05 0.52 0.52 94 1017.3
20260901011601 67 46 1.0 3.0 0.06 0.52 0.52 94 1017.3
20260901011502 67 121 1.0 2.0 0.06 0.52 0.52 94 1017.3
20260901010031 67 140 1.0 4.0 0.06 0.51 0.51 94 1017.3
20260901004541 67 269 1.0 2.0 0.06 0.50 0.50 94 1017.2
20260901003027 67 145 0.0 2.0 0.04 0.47 0.47 94 1017.1
20260901001511 67 314 2.0 5.0 0.04 0.46 0.46 94 1016.9
20260901000049 67 145 1.0 3.0 0.04 0.45 0.45 94 1016.8
20260831234526 67 135 1.0 2.0 0.04 0.44 0.44 94 1016.8
20260831233043 67 124 1.0 3.0 0.03 0.43 0.43 94 1016.9
20260831231503 67 145 1.0 4.0 0.02 0.42 0.42 94 1017.1
20260831230026 67 135 0.0 2.0 0.02 0.41 0.41 94 1017.2
20260831224543 67 127 0.0 3.0 0.01 0.40 0.40 94 1017.2
20260831223003 67 135 1.0 2.0 0.02 0.40 0.40 94 1017.3
20260831221521 67 152 1.0 3.0 0.09 0.40 0.40 94 1017.5
20260831220043 67 46 1.0 3.0 0.11 0.39 0.39 94 1017.7
20260831214505 67 178 1.0 3.0 0.12 0.39 0.39 94 1017.8
20260831213050 67 117 1.0 4.0 0.11 0.38 0.38 94 1017.9
20260831211527 67 156 1.0 3.0 0.07 0.31 0.32 94 1018.1
20260831210114 67 117 2.0 3.0 0.05 0.28 0.28 94 1017.9
20260831210001 67 140 1.0 3.0 0.05 0.28 0.28 94 1017.9
20260831204529 67 1 0.0 3.0 0.05 0.27 0.27 94 1018.2
20260831203059 67 178 2.0 4.0 0.05 0.27 0.27 94 1018.0
20260831201507 67 138 2.0 5.0 0.03 0.24 0.24 93 1017.9
20260831200034 67 105 0.0 7.0 0.06 0.23 0.23 94 1018.0
20260831194555 67 161 3.0 7.0 0.06 0.22 0.22 94 1018.1
20260831193021 67 295 1.0 5.0 0.07 0.22 0.22 94 1018.3
20260831191551 66 178 2.0 7.0 0.06 0.21 0.21 94 1018.4
20260831190108 66 135 2.0 8.0 0.03 0.17 0.18 93 1018.4
20260831190001 66 147 2.0 8.0 0.03 0.17 0.17 93 1018.4
20260831184527 66 117 3.0 7.0 0.02 0.16 0.16 93 1018.4
20260831183021 66 186 2.0 8.0 0.01 0.15 0.15 93 1018.6
20260831181559 66 178 2.0 7.0 0.01 0.15 0.15 93 1018.7
20260831180029 66 161 3.0 7.0 0.00 0.14 0.14 93 1019.0
20260831174547 66 168 4.0 8.0 0.01 0.14 0.14 93 1019.1
20260831173007 66 178 2.0 7.0 0.03 0.14 0.14 93 1019.3
20260831171529 66 147 2.0 8.0 0.04 0.14 0.14 93 1019.5
20260831170046 66 188 3.0 8.0 0.06 0.14 0.14 93 1019.5
20260831164504 65 150 3.0 8.0 0.10 0.13 0.13 93 1019.6
20260831163026 65 145 2.0 9.0 0.11 0.11 0.11 92 1019.7
20260831161544 65 110 5.0 9.0 0.10 0.10 0.10 92 1019.7
20260831160006 65 152 2.0 11.0 0.08 0.08 0.08 91 1019.9
20260831154526 65 161 3.0 10.0 0.03 0.03 0.03 90 1019.9
20260831153017 65 138 3.0 9.0 0.00 0.00 0.00 89 1020.1
20260831151558 66 135 4.0 9.0 0.00 0.00 0.00 89 1020.0
20260831151502 66 161 3.0 10.0 0.00 0.00 0.00 89 1020.0
20260831150039 66 190 6.0 11.0 0.00 0.00 0.00 88 1019.8
20260831144507 66 157 3.0 11.0 0.00 0.00 0.00 89 1019.7
20260831143030 66 138 5.0 13.0 0.00 0.00 0.00 90 1019.7
20260831141558 66 144 5.0 14.0 0.00 0.00 0.00 90 1019.7
20260831140016 65 136 5.0 11.0 0.00 0.00 0.00 91 1019.6